Time,TemperatureF,DewpointF,PressureIn,WindDirection,WindDirectionDegrees,WindSpeedMPH,WindSpeedGustMPH,Humidity,HourlyPrecipIn,Conditions,Clouds,dailyrainin,SoftwareType,DateUTC
2013-03-20 00:00:00,31.4,19.9,30.17,West,281,0.0,2.0,62,0.00,,---,0.00,VWS V14.01,2013-03-20 04:00:00,
2013-03-20 00:05:00,31.5,21.1,30.17,West,281,0.0,2.0,65,0.00,,---,0.00,VWS V14.01,2013-03-20 04:05:00,
2013-03-20 00:10:00,31.1,21.4,30.17,West,281,0.0,2.0,67,0.00,,---,0.00,VWS V14.01,2013-03-20 04:10:00,
2013-03-20 00:15:00,30.6,22.0,30.17,West,281,0.0,2.0,70,0.00,,---,0.00,VWS V14.01,2013-03-20 04:15:00,
2013-03-20 00:20:00,30.2,22.3,30.17,West,281,0.0,2.0,72,0.00,,---,0.00,VWS V14.01,2013-03-20 04:20:00,
2013-03-20 00:25:00,29.8,22.9,30.17,West,281,0.0,2.0,75,0.00,,---,0.00,VWS V14.01,2013-03-20 04:25:00,
2013-03-20 00:30:00,29.3,22.7,30.17,West,281,0.0,0.0,76,0.00,,---,0.00,VWS V14.01,2013-03-20 04:30:00,
2013-03-20 00:35:00,28.7,22.7,30.17,West,281,0.0,0.0,78,0.00,,---,0.00,VWS V14.01,2013-03-20 04:35:00,
2013-03-20 00:40:00,28.1,22.4,30.16,West,281,0.0,0.0,79,0.00,,---,0.00,VWS V14.01,2013-03-20 04:40:00,
2013-03-20 00:45:00,27.7,22.9,30.17,West,281,0.0,0.0,82,0.00,,---,0.00,VWS V14.01,2013-03-20 04:45:00,
2013-03-20 00:50:00,27.4,22.9,30.16,West,281,0.0,0.0,83,0.00,,---,0.00,VWS V14.01,2013-03-20 04:50:00,
2013-03-20 00:55:00,27.1,22.6,30.16,West,281,0.0,0.0,83,0.00,,---,0.00,VWS V14.01,2013-03-20 04:55:00,
2013-03-20 01:00:00,26.7,22.2,30.16,West,281,0.0,0.0,83,0.00,,---,0.00,VWS V14.01,2013-03-20 05:00:00,
2013-03-20 01:05:00,26.3,21.9,30.16,West,281,0.0,0.0,83,0.00,,---,0.00,VWS V14.01,2013-03-20 05:05:00,
2013-03-20 01:10:00,26.0,22.1,30.16,West,281,0.0,0.0,85,0.00,,---,0.00,VWS V14.01,2013-03-20 05:10:00,
2013-03-20 01:15:00,25.8,22.2,30.16,West,281,0.0,0.0,86,0.00,,---,0.00,VWS V14.01,2013-03-20 05:15:00,
2013-03-20 01:20:00,25.5,21.9,30.16,West,281,0.0,0.0,86,0.00,,---,0.00,VWS V14.01,2013-03-20 05:20:00,
2013-03-20 01:25:00,25.2,21.6,30.16,West,281,0.0,0.0,86,0.00,,---,0.00,VWS V14.01,2013-03-20 05:25:00,
2013-03-20 01:30:00,25.0,21.7,30.16,West,281,0.0,0.0,87,0.00,,---,0.00,VWS V14.01,2013-03-20 05:30:00,
2013-03-20 01:35:00,24.7,21.7,30.15,West,281,0.0,0.0,88,0.00,,---,0.00,VWS V14.01,2013-03-20 05:35:00,
2013-03-20 01:40:00,24.4,21.4,30.15,West,281,0.0,0.0,88,0.00,,---,0.00,VWS V14.01,2013-03-20 05:40:00,
2013-03-20 01:45:00,24.3,21.5,30.15,West,281,0.0,0.0,89,0.00,,---,0.00,VWS V14.01,2013-03-20 05:45:00,
2013-03-20 01:50:00,24.2,21.4,30.15,West,281,0.0,0.0,89,0.00,,---,0.00,VWS V14.01,2013-03-20 05:50:00,
2013-03-20 01:55:00,24.1,21.6,30.15,West,281,0.0,0.0,90,0.00,,---,0.00,VWS V14.01,2013-03-20 05:55:00,
2013-03-20 02:00:00,24.2,21.7,30.15,West,281,0.0,0.0,90,0.00,,---,0.00,VWS V14.01,2013-03-20 06:00:00,
2013-03-20 02:05:00,24.1,21.6,30.15,West,281,0.0,0.0,90,0.00,,---,0.00,VWS V14.01,2013-03-20 06:05:00,
2013-03-20 02:10:00,23.8,21.3,30.15,West,281,0.0,0.0,90,0.00,,---,0.00,VWS V14.01,2013-03-20 06:10:00,
2013-03-20 02:15:00,23.9,21.4,30.15,West,281,0.0,0.0,90,0.00,,---,0.00,VWS V14.01,2013-03-20 06:15:00,
2013-03-20 02:20:00,23.9,21.7,30.15,West,281,0.0,0.0,91,0.00,,---,0.00,VWS V14.01,2013-03-20 06:20:00,
2013-03-20 02:25:00,23.8,21.3,30.15,West,281,0.0,0.0,90,0.00,,---,0.00,VWS V14.01,2013-03-20 06:25:00,
2013-03-20 02:30:00,23.6,21.1,30.15,West,281,0.0,0.0,90,0.00,,---,0.00,VWS V14.01,2013-03-20 06:30:00,
2013-03-20 02:35:00,23.4,20.9,30.15,WNW,282,0.0,0.0,90,0.00,,---,0.00,VWS V14.01,2013-03-20 06:35:00,
2013-03-20 02:40:00,23.1,20.6,30.15,West,281,0.0,0.0,90,0.00,,---,0.00,VWS V14.01,2013-03-20 06:40:00,
2013-03-20 02:45:00,22.9,20.7,30.15,West,281,0.0,0.0,91,0.00,,---,0.00,VWS V14.01,2013-03-20 06:45:00,
2013-03-20 02:50:00,22.7,20.5,30.14,West,281,0.0,0.0,91,0.00,,---,0.00,VWS V14.01,2013-03-20 06:50:00,
2013-03-20 02:55:00,22.5,20.3,30.15,West,281,0.0,0.0,91,0.00,,---,0.00,VWS V14.01,2013-03-20 06:55:00,
2013-03-20 03:00:00,22.3,20.1,30.15,West,281,0.0,0.0,91,0.00,,---,0.00,VWS V14.01,2013-03-20 07:00:00,
2013-03-20 03:05:00,22.5,20.5,30.15,West,281,0.0,0.0,92,0.00,,---,0.00,VWS V14.01,2013-03-20 07:05:00,
2013-03-20 03:10:00,22.7,20.7,30.15,West,281,0.0,0.0,92,0.00,,---,0.00,VWS V14.01,2013-03-20 07:10:00,
2013-03-20 03:15:00,22.4,20.4,30.14,West,281,0.0,0.0,92,0.00,,---,0.00,VWS V14.01,2013-03-20 07:15:00,
2013-03-20 03:20:00,22.5,20.8,30.15,West,281,0.0,0.0,93,0.00,,---,0.00,VWS V14.01,2013-03-20 07:20:00,
2013-03-20 03:25:00,22.4,20.4,30.15,West,281,0.0,0.0,92,0.00,,---,0.00,VWS V14.01,2013-03-20 07:25:00,
2013-03-20 03:30:00,22.4,20.7,30.15,West,281,0.0,0.0,93,0.00,,---,0.00,VWS V14.01,2013-03-20 07:30:00,
2013-03-20 03:35:00,22.3,20.6,30.14,West,281,0.0,0.0,93,0.00,,---,0.00,VWS V14.01,2013-03-20 07:35:00,
2013-03-20 03:40:00,22.0,20.0,30.14,West,281,0.0,0.0,92,0.00,,---,0.00,VWS V14.01,2013-03-20 07:40:00,
2013-03-20 03:45:00,21.7,19.7,30.14,West,281,0.0,0.0,92,0.00,,---,0.00,VWS V14.01,2013-03-20 07:45:00,
2013-03-20 03:50:00,21.6,19.9,30.14,West,281,0.0,0.0,93,0.00,,---,0.00,VWS V14.01,2013-03-20 07:50:00,
2013-03-20 03:55:00,21.7,20.0,30.14,West,281,0.0,0.0,93,0.00,,---,0.00,VWS V14.01,2013-03-20 07:55:00,
2013-03-20 04:00:00,21.9,20.2,30.13,West,281,0.0,0.0,93,0.00,,---,0.00,VWS V14.01,2013-03-20 08:00:00,
2013-03-20 04:05:00,21.7,20.0,30.13,West,281,0.0,0.0,93,0.00,,---,0.00,VWS V14.01,2013-03-20 08:05:00,
2013-03-20 04:10:00,21.6,19.9,30.13,West,281,0.0,0.0,93,0.00,,---,0.00,VWS V14.01,2013-03-20 08:10:00,
2013-03-20 04:15:00,21.3,19.6,30.13,West,281,0.0,0.0,93,0.00,,---,0.00,VWS V14.01,2013-03-20 08:15:00,
2013-03-20 04:20:00,21.1,19.4,30.13,West,281,0.0,0.0,93,0.00,,---,0.00,VWS V14.01,2013-03-20 08:20:00,
2013-03-20 04:25:00,21.2,19.5,30.12,West,281,0.0,0.0,93,0.00,,---,0.00,VWS V14.01,2013-03-20 08:25:00,
2013-03-20 04:30:00,21.0,19.3,30.12,West,281,0.0,0.0,93,0.00,,---,0.00,VWS V14.01,2013-03-20 08:30:00,
2013-03-20 04:35:00,20.9,19.2,30.12,West,281,0.0,0.0,93,0.00,,---,0.00,VWS V14.01,2013-03-20 08:35:00,
2013-03-20 04:40:00,20.8,19.1,30.12,West,281,0.0,0.0,93,0.00,,---,0.00,VWS V14.01,2013-03-20 08:40:00,
2013-03-20 04:45:00,20.9,19.5,30.11,West,281,0.0,0.0,94,0.00,,---,0.00,VWS V14.01,2013-03-20 08:45:00,
2013-03-20 04:50:00,21.0,19.5,30.11,West,281,0.0,0.0,94,0.00,,---,0.00,VWS V14.01,2013-03-20 08:50:00,
2013-03-20 04:55:00,20.9,19.5,30.11,West,281,0.0,0.0,94,0.00,,---,0.00,VWS V14.01,2013-03-20 08:55:00,
2013-03-20 05:00:00,20.9,19.5,30.11,West,281,0.0,0.0,94,0.00,,---,0.00,VWS V14.01,2013-03-20 09:00:00,
2013-03-20 05:05:00,20.9,19.5,30.11,West,281,0.0,0.0,94,0.00,,---,0.00,VWS V14.01,2013-03-20 09:05:00,
2013-03-20 05:10:00,20.8,19.4,30.11,West,281,0.0,0.0,94,0.00,,---,0.00,VWS V14.01,2013-03-20 09:10:00,
2013-03-20 05:15:00,20.7,19.2,30.11,West,281,0.0,0.0,94,0.00,,---,0.00,VWS V14.01,2013-03-20 09:15:00,
2013-03-20 05:20:00,20.4,18.7,30.11,West,281,0.0,0.0,93,0.00,,---,0.00,VWS V14.01,2013-03-20 09:20:00,
2013-03-20 05:25:00,20.1,18.4,30.10,West,281,0.0,0.0,93,0.00,,---,0.00,VWS V14.01,2013-03-20 09:25:00,
2013-03-20 05:30:00,19.8,18.1,30.10,West,281,0.0,0.0,93,0.00,,---,0.00,VWS V14.01,2013-03-20 09:30:00,
2013-03-20 05:35:00,19.7,18.3,30.10,West,281,0.0,0.0,94,0.00,,---,0.00,VWS V14.01,2013-03-20 09:35:00,
2013-03-20 05:40:00,20.0,18.5,30.10,West,281,0.0,0.0,94,0.00,,---,0.00,VWS V14.01,2013-03-20 09:40:00,
2013-03-20 05:45:00,20.0,18.5,30.10,West,281,0.0,0.0,94,0.00,,---,0.00,VWS V14.01,2013-03-20 09:45:00,
2013-03-20 05:50:00,20.0,18.5,30.10,West,281,0.0,0.0,94,0.00,,---,0.00,VWS V14.01,2013-03-20 09:50:00,
2013-03-20 05:55:00,20.1,18.6,30.10,West,281,0.0,0.0,94,0.00,,---,0.00,VWS V14.01,2013-03-20 09:55:00,
2013-03-20 06:00:00,20.3,18.9,30.09,West,281,0.0,0.0,94,0.00,,---,0.00,VWS V14.01,2013-03-20 10:00:00,
2013-03-20 06:05:00,20.5,19.3,30.09,West,281,0.0,0.0,95,0.00,,---,0.00,VWS V14.01,2013-03-20 10:05:00,
2013-03-20 06:09:00,20.5,19.3,30.10,West,281,0.0,0.0,95,0.00,,---,0.00,VWS V14.01,2013-03-20 10:09:00,
2013-03-20 06:15:00,20.6,19.4,30.10,West,281,0.0,0.0,95,0.00,,---,0.00,VWS V14.01,2013-03-20 10:15:00,
2013-03-20 06:19:00,20.7,19.5,30.10,West,281,0.0,0.0,95,0.00,,---,0.00,VWS V14.01,2013-03-20 10:19:00,
2013-03-20 06:24:00,20.6,19.1,30.10,West,281,0.0,0.0,94,0.00,,---,0.00,VWS V14.01,2013-03-20 10:24:00,
2013-03-20 06:29:00,20.4,19.0,30.10,WNW,282,0.0,0.0,94,0.00,,---,0.00,VWS V14.01,2013-03-20 10:29:00,
2013-03-20 06:34:00,20.3,18.9,30.10,West,281,0.0,0.0,94,0.00,,---,0.00,VWS V14.01,2013-03-20 10:34:00,
2013-03-20 06:39:00,20.6,19.4,30.10,West,281,0.0,0.0,95,0.00,,---,0.00,VWS V14.01,2013-03-20 10:39:00,
2013-03-20 06:44:00,20.8,19.6,30.10,West,281,0.0,0.0,95,0.00,,---,0.00,VWS V14.01,2013-03-20 10:44:00,
2013-03-20 06:49:00,20.5,19.0,30.10,West,281,0.0,0.0,94,0.00,,---,0.00,VWS V14.01,2013-03-20 10:49:00,
2013-03-20 06:54:00,20.1,18.6,30.10,West,281,0.0,0.0,94,0.00,,---,0.00,VWS V14.01,2013-03-20 10:54:00,
2013-03-20 06:59:00,19.8,18.4,30.10,West,281,0.0,0.0,94,0.00,,---,0.00,VWS V14.01,2013-03-20 10:59:00,
2013-03-20 07:04:00,19.8,18.4,30.10,West,281,0.0,0.0,94,0.00,,---,0.00,VWS V14.01,2013-03-20 11:04:00,
2013-03-20 07:09:00,19.7,18.3,30.10,West,281,0.0,0.0,94,0.00,,---,0.00,VWS V14.01,2013-03-20 11:09:00,
2013-03-20 07:14:00,19.6,18.2,30.11,West,281,0.0,0.0,94,0.00,,---,0.00,VWS V14.01,2013-03-20 11:14:00,
2013-03-20 07:19:00,19.4,18.0,30.11,West,281,0.0,0.0,94,0.00,,---,0.00,VWS V14.01,2013-03-20 11:19:00,
2013-03-20 07:24:00,19.7,18.5,30.11,West,281,0.0,0.0,95,0.00,,---,0.00,VWS V14.01,2013-03-20 11:24:00,
2013-03-20 07:29:00,20.1,18.9,30.11,West,281,0.0,0.0,95,0.00,,---,0.00,VWS V14.01,2013-03-20 11:29:00,
2013-03-20 07:34:00,20.4,19.2,30.11,West,281,0.0,0.0,95,0.00,,---,0.00,VWS V14.01,2013-03-20 11:34:00,
2013-03-20 07:39:00,20.7,19.5,30.11,West,281,0.0,0.0,95,0.00,,---,0.00,VWS V14.01,2013-03-20 11:39:00,
2013-03-20 07:44:00,20.9,19.7,30.11,West,281,0.0,0.0,95,0.00,,---,0.00,VWS V14.01,2013-03-20 11:44:00,
2013-03-20 07:49:00,21.0,19.8,30.12,West,281,0.0,0.0,95,0.00,,---,0.00,VWS V14.01,2013-03-20 11:49:00,
2013-03-20 07:54:00,21.0,19.8,30.12,West,281,0.0,0.0,95,0.00,,---,0.00,VWS V14.01,2013-03-20 11:54:00,
2013-03-20 07:59:00,20.9,19.7,30.12,West,281,0.0,0.0,95,0.00,,---,0.00,VWS V14.01,2013-03-20 11:59:00,
2013-03-20 08:04:00,20.7,19.2,30.12,West,281,0.0,0.0,94,0.00,,---,0.00,VWS V14.01,2013-03-20 12:04:00,
2013-03-20 08:09:00,20.9,19.7,30.12,West,281,0.0,0.0,95,0.00,,---,0.00,VWS V14.01,2013-03-20 12:09:00,
2013-03-20 08:14:00,21.3,20.1,30.12,West,281,0.0,0.0,95,0.00,,---,0.00,VWS V14.01,2013-03-20 12:14:00,
2013-03-20 08:19:00,21.8,20.6,30.12,West,281,0.0,0.0,95,0.00,,---,0.00,VWS V14.01,2013-03-20 12:19:00,
2013-03-20 08:24:00,22.5,21.3,30.12,West,281,0.0,0.0,95,0.00,,---,0.00,VWS V14.01,2013-03-20 12:24:00,
2013-03-20 08:29:00,23.4,22.2,30.12,West,281,0.0,0.0,95,0.00,,---,0.00,VWS V14.01,2013-03-20 12:29:00,
2013-03-20 08:34:00,24.4,23.4,30.12,West,281,0.0,1.0,96,0.00,,---,0.00,VWS V14.01,2013-03-20 12:34:00,
2013-03-20 08:39:00,25.5,24.3,30.12,SW,231,1.0,2.0,95,0.00,,---,0.00,VWS V14.01,2013-03-20 12:39:00,
2013-03-20 08:44:00,26.7,24.7,30.12,SW,228,2.0,2.0,92,0.00,,---,0.00,VWS V14.01,2013-03-20 12:44:00,
2013-03-20 08:49:00,27.9,24.5,30.12,SW,232,1.0,3.0,87,0.00,,---,0.00,VWS V14.01,2013-03-20 12:49:00,
2013-03-20 08:54:00,29.0,24.8,30.12,SW,228,2.0,4.0,84,0.00,,---,0.00,VWS V14.01,2013-03-20 12:54:00,
2013-03-20 08:59:00,30.1,25.3,30.12,WSW,242,2.0,4.0,82,0.00,,---,0.00,VWS V14.01,2013-03-20 12:59:00,
2013-03-20 09:04:00,30.9,25.5,30.12,SW,219,4.0,5.0,80,0.00,,---,0.00,VWS V14.01,2013-03-20 13:04:00,
2013-03-20 09:09:00,31.8,25.7,30.12,SW,218,4.0,5.0,78,0.00,,---,0.00,VWS V14.01,2013-03-20 13:09:00,
2013-03-20 09:14:00,32.7,26.0,30.12,WSW,238,3.0,5.0,76,0.00,,---,0.00,VWS V14.01,2013-03-20 13:14:00,
2013-03-20 09:19:00,33.5,26.4,30.12,SSW,208,3.0,5.0,75,0.00,,---,0.00,VWS V14.01,2013-03-20 13:19:00,
2013-03-20 09:24:00,34.2,26.5,30.12,WSW,246,4.0,5.0,73,0.00,,---,0.00,VWS V14.01,2013-03-20 13:24:00,
2013-03-20 09:29:00,34.5,25.4,30.12,West,278,1.0,6.0,69,0.00,,---,0.00,VWS V14.01,2013-03-20 13:29:00,
2013-03-20 09:34:00,35.0,26.2,30.12,SW,236,4.0,6.0,70,0.00,,---,0.00,VWS V14.01,2013-03-20 13:34:00,
2013-03-20 09:39:00,35.7,27.6,30.12,SW,218,1.0,6.0,72,0.00,,---,0.00,VWS V14.01,2013-03-20 13:39:00,
2013-03-20 09:44:00,36.5,26.6,30.12,WSW,256,3.0,6.0,67,0.00,,---,0.00,VWS V14.01,2013-03-20 13:44:00,
2013-03-20 09:49:00,37.0,27.1,30.12,WNW,283,3.0,6.0,67,0.00,,---,0.00,VWS V14.01,2013-03-20 13:49:00,
2013-03-20 09:54:00,37.6,26.5,30.11,West,262,1.0,6.0,64,0.00,,---,0.00,VWS V14.01,2013-03-20 13:54:00,
2013-03-20 09:59:00,38.3,26.8,30.11,WSW,252,2.0,6.0,63,0.00,,---,0.00,VWS V14.01,2013-03-20 13:59:00,
2013-03-20 10:04:00,38.8,26.9,30.11,SW,236,5.0,6.0,62,0.00,,---,0.00,VWS V14.01,2013-03-20 14:04:00,
2013-03-20 10:09:00,39.2,26.5,30.11,NW,311,2.0,8.0,60,0.00,,---,0.00,VWS V14.01,2013-03-20 14:09:00,
2013-03-20 10:14:00,39.7,26.6,30.11,West,276,2.0,8.0,59,0.00,,---,0.00,VWS V14.01,2013-03-20 14:14:00,
2013-03-20 10:19:00,40.2,26.2,30.11,West,281,4.0,8.0,57,0.00,,---,0.00,VWS V14.01,2013-03-20 14:19:00,
2013-03-20 10:24:00,40.7,26.2,30.11,WNW,294,6.0,8.0,56,0.00,,---,0.00,VWS V14.01,2013-03-20 14:24:00,
2013-03-20 10:29:00,40.6,26.6,30.11,WSW,241,0.0,6.0,57,0.00,,---,0.00,VWS V14.01,2013-03-20 14:29:00,
2013-03-20 10:34:00,41.5,27.8,30.11,NW,305,4.0,6.0,58,0.00,,---,0.00,VWS V14.01,2013-03-20 14:34:00,
2013-03-20 10:39:00,41.7,26.3,30.10,SW,227,4.0,9.0,54,0.00,,---,0.00,VWS V14.01,2013-03-20 14:39:00,
2013-03-20 10:44:00,41.6,26.2,30.10,NW,311,2.0,9.0,54,0.00,,---,0.00,VWS V14.01,2013-03-20 14:44:00,
2013-03-20 10:49:00,41.4,24.2,30.10,WNW,283,3.0,11.0,50,0.00,,---,0.00,VWS V14.01,2013-03-20 14:49:00,
2013-03-20 10:54:00,41.3,25.9,30.10,WSW,255,5.0,13.0,54,0.00,,---,0.00,VWS V14.01,2013-03-20 14:54:00,
2013-03-20 10:59:00,41.5,24.7,30.09,WNW,290,8.0,8.0,51,0.00,,---,0.00,VWS V14.01,2013-03-20 14:59:00,
2013-03-20 11:04:00,41.6,26.2,30.09,WNW,295,4.0,8.0,54,0.00,,---,0.00,VWS V14.01,2013-03-20 15:04:00,
2013-03-20 11:09:00,42.1,25.8,30.09,West,259,3.0,8.0,52,0.00,,---,0.00,VWS V14.01,2013-03-20 15:09:00,
2013-03-20 11:14:00,42.4,25.6,30.09,WSW,248,6.0,9.0,51,0.00,,---,0.00,VWS V14.01,2013-03-20 15:14:00,
2013-03-20 11:19:00,42.6,25.3,30.09,WNW,301,2.0,10.0,50,0.00,,---,0.00,VWS V14.01,2013-03-20 15:19:00,
2013-03-20 11:24:00,42.9,26.0,30.09,WNW,284,3.0,13.0,51,0.00,,---,0.00,VWS V14.01,2013-03-20 15:24:00,
2013-03-20 11:29:00,42.9,25.6,30.09,WSW,253,5.0,7.0,50,0.00,,---,0.00,VWS V14.01,2013-03-20 15:29:00,
2013-03-20 11:34:00,43.2,27.2,30.09,WNW,288,8.0,8.0,53,0.00,,---,0.00,VWS V14.01,2013-03-20 15:34:00,
2013-03-20 11:39:00,43.5,26.1,30.09,West,280,2.0,8.0,50,0.00,,---,0.00,VWS V14.01,2013-03-20 15:39:00,
2013-03-20 11:44:00,43.3,26.4,30.09,WNW,283,6.0,9.0,51,0.00,,---,0.00,VWS V14.01,2013-03-20 15:44:00,
2013-03-20 11:49:00,42.7,25.4,30.09,West,274,3.0,10.0,50,0.00,,---,0.00,VWS V14.01,2013-03-20 15:49:00,
2013-03-20 11:54:00,42.7,25.9,30.09,West,262,5.0,13.0,51,0.00,,---,0.00,VWS V14.01,2013-03-20 15:54:00,
2013-03-20 11:59:00,43.6,26.7,30.08,West,262,6.0,12.0,51,0.00,,---,0.00,VWS V14.01,2013-03-20 15:59:00,
2013-03-20 12:04:00,43.7,26.3,30.08,WNW,297,10.0,13.0,50,0.00,,---,0.00,VWS V14.01,2013-03-20 16:04:00,
2013-03-20 12:09:00,43.6,25.7,30.08,SW,234,2.0,13.0,49,0.00,,---,0.00,VWS V14.01,2013-03-20 16:09:00,
2013-03-20 12:14:00,44.0,25.6,30.08,WSW,252,7.0,13.0,48,0.00,,---,0.00,VWS V14.01,2013-03-20 16:14:00,
2013-03-20 12:19:00,44.1,26.2,30.07,West,274,6.0,13.0,49,0.00,,---,0.00,VWS V14.01,2013-03-20 16:19:00,
2013-03-20 12:24:00,44.4,27.9,30.08,West,276,6.0,13.0,52,0.00,,---,0.00,VWS V14.01,2013-03-20 16:24:00,
2013-03-20 12:29:00,45.1,27.1,30.07,West,271,5.0,8.0,49,0.00,,---,0.00,VWS V14.01,2013-03-20 16:29:00,
2013-03-20 12:34:00,45.1,25.6,30.07,NW,325,5.0,11.0,46,0.00,,---,0.00,VWS V14.01,2013-03-20 16:34:00,
2013-03-20 12:39:00,44.7,24.1,30.07,SW,222,14.0,15.0,44,0.00,,---,0.00,VWS V14.01,2013-03-20 16:39:00,
2013-03-20 12:44:00,44.6,24.0,30.07,NW,309,3.0,15.0,44,0.00,,---,0.00,VWS V14.01,2013-03-20 16:44:00,
2013-03-20 12:49:00,45.1,22.8,30.07,WSW,253,10.0,15.0,41,0.00,,---,0.00,VWS V14.01,2013-03-20 16:49:00,
2013-03-20 12:54:00,45.1,22.8,30.07,SW,215,7.0,19.0,41,0.00,,---,0.00,VWS V14.01,2013-03-20 16:54:00,
2013-03-20 12:59:00,45.0,22.7,30.08,WNW,292,9.0,12.0,41,0.00,,---,0.00,VWS V14.01,2013-03-20 16:59:00,
2013-03-20 13:04:00,45.2,24.0,30.07,WSW,246,5.0,17.0,43,0.00,,---,0.00,VWS V14.01,2013-03-20 17:04:00,
2013-03-20 13:09:00,45.5,24.3,30.07,WSW,250,5.0,17.0,43,0.00,,---,0.00,VWS V14.01,2013-03-20 17:09:00,
2013-03-20 13:14:00,46.1,23.7,30.07,SSW,210,13.0,17.0,41,0.00,,---,0.00,VWS V14.01,2013-03-20 17:14:00,
2013-03-20 13:19:00,45.9,21.7,30.07,NW,304,2.0,17.0,38,0.00,,---,0.00,VWS V14.01,2013-03-20 17:19:00,
2013-03-20 13:24:00,45.2,22.3,30.07,WNW,294,5.0,17.0,40,0.00,,---,0.00,VWS V14.01,2013-03-20 17:24:00,
2013-03-20 13:29:00,45.0,21.5,30.06,West,264,8.0,11.0,39,0.00,,---,0.00,VWS V14.01,2013-03-20 17:29:00,
2013-03-20 13:34:00,44.5,22.3,30.06,WNW,290,11.0,13.0,41,0.00,,---,0.00,VWS V14.01,2013-03-20 17:34:00,
2013-03-20 13:39:00,44.3,21.5,30.07,West,262,13.0,14.0,40,0.00,,---,0.00,VWS V14.01,2013-03-20 17:39:00,
2013-03-20 13:44:00,44.0,23.0,30.06,NE,40,6.0,14.0,43,0.00,,---,0.00,VWS V14.01,2013-03-20 17:44:00,
2013-03-20 13:49:00,43.8,21.6,30.06,WNW,297,10.0,16.0,41,0.00,,---,0.00,VWS V14.01,2013-03-20 17:49:00,
2013-03-20 13:54:00,43.1,21.6,30.06,West,267,4.0,16.0,42,0.00,,---,0.00,VWS V14.01,2013-03-20 17:54:00,
2013-03-20 13:59:00,42.9,23.0,30.06,WSW,239,10.0,12.0,45,0.00,,---,0.00,VWS V14.01,2013-03-20 17:59:00,
2013-03-20 14:04:00,43.4,24.0,30.06,SW,231,4.0,12.0,46,0.00,,---,0.00,VWS V14.01,2013-03-20 18:04:00,
2013-03-20 14:09:00,43.5,22.5,30.06,WNW,284,8.0,12.0,43,0.00,,---,0.00,VWS V14.01,2013-03-20 18:09:00,
2013-03-20 14:14:00,42.6,21.7,30.06,WNW,284,4.0,14.0,43,0.00,,---,0.00,VWS V14.01,2013-03-20 18:14:00,
2013-03-20 14:19:00,42.2,22.4,30.06,West,266,6.0,14.0,45,0.00,,---,0.00,VWS V14.01,2013-03-20 18:19:00,
2013-03-20 14:24:00,42.2,23.4,30.06,NNW,337,5.0,14.0,47,0.00,,---,0.00,VWS V14.01,2013-03-20 18:24:00,
2013-03-20 14:29:00,41.4,23.2,30.06,NNW,338,5.0,11.0,48,0.00,,---,0.00,VWS V14.01,2013-03-20 18:29:00,
2013-03-20 14:34:00,41.2,24.0,30.05,West,278,3.0,13.0,50,0.00,,---,0.00,VWS V14.01,2013-03-20 18:34:00,
2013-03-20 14:39:00,41.3,23.6,30.05,WSW,248,12.0,13.0,49,0.00,,---,0.00,VWS V14.01,2013-03-20 18:39:00,
2013-03-20 14:44:00,41.5,23.8,30.05,NW,321,6.0,15.0,49,0.00,,---,0.00,VWS V14.01,2013-03-20 18:44:00,
2013-03-20 14:49:00,41.0,21.8,30.05,West,271,4.0,15.0,46,0.00,,---,0.00,VWS V14.01,2013-03-20 18:49:00,
2013-03-20 14:54:00,40.9,20.1,30.05,WSW,248,7.0,21.0,43,0.00,,---,0.00,VWS V14.01,2013-03-20 18:54:00,
2013-03-20 14:59:00,40.3,20.7,30.05,West,266,8.0,11.0,45,0.00,,---,0.00,VWS V14.01,2013-03-20 18:59:00,
2013-03-20 15:04:00,39.6,20.0,30.05,West,281,6.0,11.0,45,0.00,,---,0.00,VWS V14.01,2013-03-20 19:04:00,
2013-03-20 15:09:00,39.7,20.6,30.04,WNW,283,2.0,11.0,46,0.00,,---,0.00,VWS V14.01,2013-03-20 19:09:00,
2013-03-20 15:14:00,40.7,22.1,30.04,West,278,8.0,14.0,47,0.00,,---,0.00,VWS V14.01,2013-03-20 19:14:00,
2013-03-20 15:19:00,40.7,20.5,30.04,WSW,252,14.0,16.0,44,0.00,,---,0.00,VWS V14.01,2013-03-20 19:19:00,
2013-03-20 15:24:00,41.0,21.8,30.04,SW,232,11.0,16.0,46,0.00,,---,0.00,VWS V14.01,2013-03-20 19:24:00,
2013-03-20 15:29:00,41.2,21.0,30.04,WSW,253,5.0,11.0,44,0.00,,---,0.00,VWS V14.01,2013-03-20 19:29:00,
2013-03-20 15:34:00,40.8,20.0,30.03,WNW,292,4.0,11.0,43,0.00,,---,0.00,VWS V14.01,2013-03-20 19:34:00,
2013-03-20 15:39:00,39.9,19.8,30.03,North,1,6.0,15.0,44,0.00,,---,0.00,VWS V14.01,2013-03-20 19:39:00,
2013-03-20 15:44:00,39.6,20.0,30.03,WNW,283,5.0,15.0,45,0.00,,---,0.00,VWS V14.01,2013-03-20 19:44:00,
2013-03-20 15:49:00,39.5,18.9,30.03,NW,322,6.0,16.0,43,0.00,,---,0.00,VWS V14.01,2013-03-20 19:49:00,
2013-03-20 15:54:00,39.2,19.1,30.03,NNW,332,3.0,16.0,44,0.00,,---,0.00,VWS V14.01,2013-03-20 19:54:00,
2013-03-20 15:59:00,39.8,18.6,30.03,WSW,238,3.0,14.0,42,0.00,,---,0.00,VWS V14.01,2013-03-20 19:59:00,
2013-03-20 16:04:00,40.2,18.4,30.03,WNW,288,3.0,14.0,41,0.00,,---,0.00,VWS V14.01,2013-03-20 20:04:00,
2013-03-20 16:09:00,39.1,17.4,30.02,WNW,290,5.0,14.0,41,0.00,,---,0.00,VWS V14.01,2013-03-20 20:09:00,
2013-03-20 16:14:00,38.6,18.0,30.03,WSW,239,5.0,16.0,43,0.00,,---,0.00,VWS V14.01,2013-03-20 20:14:00,
2013-03-20 16:19:00,39.1,18.0,30.02,West,273,9.0,16.0,42,0.00,,---,0.00,VWS V14.01,2013-03-20 20:19:00,
2013-03-20 16:24:00,39.5,18.3,30.02,West,276,9.0,16.0,42,0.00,,---,0.00,VWS V14.01,2013-03-20 20:24:00,
2013-03-20 16:29:00,39.1,18.0,30.02,WNW,290,4.0,11.0,42,0.00,,---,0.00,VWS V14.01,2013-03-20 20:29:00,
2013-03-20 16:34:00,39.2,17.5,30.02,West,274,3.0,18.0,41,0.00,,---,0.00,VWS V14.01,2013-03-20 20:34:00,
2013-03-20 16:39:00,38.4,16.8,30.03,West,276,3.0,18.0,41,0.00,,---,0.00,VWS V14.01,2013-03-20 20:39:00,
2013-03-20 16:44:00,37.5,16.0,30.03,NW,326,4.0,18.0,41,0.00,,---,0.00,VWS V14.01,2013-03-20 20:44:00,
2013-03-20 16:49:00,37.3,15.8,30.03,WNW,293,3.0,18.0,41,0.00,,---,0.00,VWS V14.01,2013-03-20 20:49:00,
2013-03-20 16:54:00,38.4,15.0,30.03,WNW,290,8.0,18.0,38,0.00,,---,0.00,VWS V14.01,2013-03-20 20:54:00,
2013-03-20 16:59:00,38.8,15.4,30.03,WSW,240,4.0,11.0,38,0.00,,---,0.00,VWS V14.01,2013-03-20 20:59:00,
2013-03-20 17:04:00,39.5,14.8,30.03,WNW,301,5.0,11.0,36,0.00,,---,0.00,VWS V14.01,2013-03-20 21:04:00,
2013-03-20 17:09:00,39.4,14.7,30.03,NW,304,10.0,15.0,36,0.00,,---,0.00,VWS V14.01,2013-03-20 21:09:00,
2013-03-20 17:14:00,39.1,15.0,30.03,WNW,283,7.0,15.0,37,0.00,,---,0.00,VWS V14.01,2013-03-20 21:14:00,
2013-03-20 17:19:00,39.3,16.4,30.02,WNW,294,9.0,15.0,39,0.00,,---,0.00,VWS V14.01,2013-03-20 21:19:00,
2013-03-20 17:24:00,39.1,16.2,30.03,NNW,339,8.0,15.0,39,0.00,,---,0.00,VWS V14.01,2013-03-20 21:24:00,
2013-03-20 17:29:00,38.3,15.5,30.04,WNW,283,5.0,11.0,39,0.00,,---,0.00,VWS V14.01,2013-03-20 21:29:00,
2013-03-20 17:34:00,37.2,16.2,30.04,West,271,4.0,13.0,42,0.00,,---,0.00,VWS V14.01,2013-03-20 21:34:00,
2013-03-20 17:39:00,37.1,15.6,30.03,West,262,5.0,13.0,41,0.00,,---,0.00,VWS V14.01,2013-03-20 21:39:00,
2013-03-20 17:44:00,37.6,16.0,30.03,NW,323,4.0,15.0,41,0.00,,---,0.00,VWS V14.01,2013-03-20 21:44:00,
2013-03-20 17:49:00,37.3,16.3,30.04,West,278,7.0,15.0,42,0.00,,---,0.00,VWS V14.01,2013-03-20 21:49:00,
2013-03-20 17:54:00,36.5,16.1,30.04,NW,316,2.0,15.0,43,0.00,,---,0.00,VWS V14.01,2013-03-20 21:54:00,
2013-03-20 17:59:00,36.1,16.3,30.04,West,269,11.0,14.0,44,0.00,,---,0.00,VWS V14.01,2013-03-20 21:59:00,
2013-03-20 18:04:00,35.9,15.6,30.04,WNW,295,3.0,16.0,43,0.00,,---,0.00,VWS V14.01,2013-03-20 22:04:00,
2013-03-20 18:09:00,35.7,15.9,30.04,NNE,33,9.0,19.0,44,0.00,,---,0.00,VWS V14.01,2013-03-20 22:09:00,
2013-03-20 18:14:00,35.3,15.6,30.05,WNW,283,9.0,19.0,44,0.00,,---,0.00,VWS V14.01,2013-03-20 22:14:00,
2013-03-20 18:19:00,35.3,15.1,30.05,WNW,290,8.0,19.0,43,0.00,,---,0.00,VWS V14.01,2013-03-20 22:19:00,
2013-03-20 18:24:00,35.4,15.7,30.05,WNW,283,5.0,19.0,44,0.00,,---,0.00,VWS V14.01,2013-03-20 22:24:00,
2013-03-20 18:29:00,35.0,15.3,30.05,NNW,330,9.0,11.0,44,0.00,,---,0.00,VWS V14.01,2013-03-20 22:29:00,
2013-03-20 18:34:00,34.9,15.7,30.05,West,263,4.0,14.0,45,0.00,,---,0.00,VWS V14.01,2013-03-20 22:34:00,
2013-03-20 18:39:00,34.7,15.0,30.05,WNW,288,12.0,14.0,44,0.00,,---,0.00,VWS V14.01,2013-03-20 22:39:00,
2013-03-20 18:44:00,34.5,14.9,30.05,NNW,332,11.0,15.0,44,0.00,,---,0.00,VWS V14.01,2013-03-20 22:44:00,
2013-03-20 18:49:00,34.2,15.1,30.05,NW,319,3.0,15.0,45,0.00,,---,0.00,VWS V14.01,2013-03-20 22:49:00,
2013-03-20 18:54:00,33.4,14.9,30.05,WNW,285,4.0,17.0,46,0.00,,---,0.00,VWS V14.01,2013-03-20 22:54:00,
2013-03-20 18:59:00,33.1,15.1,30.05,North,351,7.0,9.0,47,0.00,,---,0.00,VWS V14.01,2013-03-20 22:59:00,
2013-03-20 19:04:00,32.9,14.9,30.05,WNW,295,5.0,9.0,47,0.00,,---,0.00,VWS V14.01,2013-03-20 23:04:00,
2013-03-20 19:09:00,32.7,14.2,30.06,WNW,290,5.0,16.0,46,0.00,,---,0.00,VWS V14.01,2013-03-20 23:09:00,
2013-03-20 19:14:00,32.5,14.5,30.06,WNW,289,4.0,16.0,47,0.00,,---,0.00,VWS V14.01,2013-03-20 23:14:00,
2013-03-20 19:19:00,32.5,14.5,30.06,West,274,6.0,16.0,47,0.00,,---,0.00,VWS V14.01,2013-03-20 23:19:00,
2013-03-20 19:24:00,32.1,14.6,30.06,WNW,300,7.0,16.0,48,0.00,,---,0.00,VWS V14.01,2013-03-20 23:24:00,
2013-03-20 19:29:00,31.7,14.3,30.06,WSW,250,1.0,7.0,48,0.00,,---,0.00,VWS V14.01,2013-03-20 23:29:00,
2013-03-20 19:34:00,31.2,13.8,30.07,NW,307,2.0,8.0,48,0.00,,---,0.00,VWS V14.01,2013-03-20 23:34:00,
2013-03-20 19:39:00,30.8,14.4,30.06,WNW,287,7.0,12.0,50,0.00,,---,0.00,VWS V14.01,2013-03-20 23:39:00,
2013-03-20 19:44:00,30.5,13.6,30.07,NNE,23,2.0,12.0,49,0.00,,---,0.00,VWS V14.01,2013-03-20 23:44:00,
2013-03-20 19:49:00,30.2,13.8,30.06,NW,318,4.0,12.0,50,0.00,,---,0.00,VWS V14.01,2013-03-20 23:49:00,
2013-03-20 19:54:00,30.0,13.6,30.07,WSW,239,5.0,15.0,50,0.00,,---,0.00,VWS V14.01,2013-03-20 23:54:00,
2013-03-20 19:59:00,29.8,13.4,30.07,West,263,6.0,10.0,50,0.00,,---,0.00,VWS V14.01,2013-03-20 23:59:00,
2013-03-20 20:04:00,29.7,13.8,30.07,NW,311,3.0,14.0,51,0.00,,---,0.00,VWS V14.01,2013-03-21 00:04:00,
2013-03-20 20:09:00,29.5,14.1,30.07,NNW,328,3.0,14.0,52,0.00,,---,0.00,VWS V14.01,2013-03-21 00:09:00,
2013-03-20 20:14:00,29.4,13.5,30.07,NW,309,4.0,14.0,51,0.00,,---,0.00,VWS V14.01,2013-03-21 00:14:00,
2013-03-20 20:19:00,29.3,13.4,30.07,NW,308,6.0,14.0,51,0.00,,---,0.00,VWS V14.01,2013-03-21 00:19:00,
2013-03-20 20:24:00,29.2,13.8,30.07,NW,306,4.0,14.0,52,0.00,,---,0.00,VWS V14.01,2013-03-21 00:24:00,
2013-03-20 20:29:00,29.1,13.7,30.07,NW,318,3.0,8.0,52,0.00,,---,0.00,VWS V14.01,2013-03-21 00:29:00,
2013-03-20 20:34:00,28.9,13.9,30.07,WNW,298,6.0,11.0,53,0.00,,---,0.00,VWS V14.01,2013-03-21 00:34:00,
2013-03-20 20:39:00,28.8,14.3,30.08,West,260,8.0,11.0,54,0.00,,---,0.00,VWS V14.01,2013-03-21 00:39:00,
2013-03-20 20:44:00,28.8,13.8,30.07,North,1,4.0,12.0,53,0.00,,---,0.00,VWS V14.01,2013-03-21 00:44:00,
2013-03-20 20:49:00,28.7,14.6,30.08,WNW,299,2.0,12.0,55,0.00,,---,0.00,VWS V14.01,2013-03-21 00:49:00,
2013-03-20 20:54:00,28.5,13.6,30.08,WSW,253,2.0,12.0,53,0.00,,---,0.00,VWS V14.01,2013-03-21 00:54:00,
2013-03-20 20:59:00,28.3,13.4,30.08,North,358,2.0,11.0,53,0.00,,---,0.00,VWS V14.01,2013-03-21 00:59:00,
2013-03-20 21:04:00,28.1,13.6,30.08,WNW,295,7.0,11.0,54,0.00,,---,0.00,VWS V14.01,2013-03-21 01:04:00,
2013-03-20 21:09:00,28.0,14.3,30.08,North,353,4.0,11.0,56,0.00,,---,0.00,VWS V14.01,2013-03-21 01:09:00,
2013-03-20 21:14:00,27.9,14.2,30.08,WNW,301,4.0,11.0,56,0.00,,---,0.00,VWS V14.01,2013-03-21 01:14:00,
2013-03-20 21:19:00,27.8,14.6,30.08,NW,311,6.0,11.0,57,0.00,,---,0.00,VWS V14.01,2013-03-21 01:19:00,
2013-03-20 21:24:00,27.7,14.1,30.08,West,274,4.0,11.0,56,0.00,,---,0.00,VWS V14.01,2013-03-21 01:24:00,
2013-03-20 21:29:00,27.7,13.6,30.08,WNW,293,4.0,9.0,55,0.00,,---,0.00,VWS V14.01,2013-03-21 01:29:00,
2013-03-20 21:34:00,27.6,13.6,30.08,WNW,291,2.0,9.0,55,0.00,,---,0.00,VWS V14.01,2013-03-21 01:34:00,
2013-03-20 21:39:00,27.4,13.0,30.08,NW,311,3.0,9.0,54,0.00,,---,0.00,VWS V14.01,2013-03-21 01:39:00,
2013-03-20 21:44:00,27.3,12.9,30.08,West,271,2.0,9.0,54,0.00,,---,0.00,VWS V14.01,2013-03-21 01:44:00,
2013-03-20 21:49:00,27.2,12.4,30.08,NW,307,8.0,12.0,53,0.00,,---,0.00,VWS V14.01,2013-03-21 01:49:00,
2013-03-20 21:54:00,27.1,12.7,30.08,NW,311,4.0,12.0,54,0.00,,---,0.00,VWS V14.01,2013-03-21 01:54:00,
2013-03-20 21:59:00,26.9,12.5,30.08,NNW,332,2.0,5.0,54,0.00,,---,0.00,VWS V14.01,2013-03-21 01:59:00,
2013-03-20 22:04:00,26.7,12.7,30.08,WNW,295,1.0,5.0,55,0.00,,---,0.00,VWS V14.01,2013-03-21 02:04:00,
2013-03-20 22:09:00,26.6,13.0,30.09,NW,316,2.0,11.0,56,0.00,,---,0.00,VWS V14.01,2013-03-21 02:09:00,
2013-03-20 22:14:00,26.3,13.1,30.08,West,278,1.0,11.0,57,0.00,,---,0.00,VWS V14.01,2013-03-21 02:14:00,
2013-03-20 22:19:00,26.1,13.0,30.09,NW,318,1.0,11.0,57,0.00,,---,0.00,VWS V14.01,2013-03-21 02:19:00,
2013-03-20 22:24:00,26.0,12.9,30.08,NW,326,3.0,11.0,57,0.00,,---,0.00,VWS V14.01,2013-03-21 02:24:00,
2013-03-20 22:29:00,25.9,12.8,30.09,NW,304,2.0,4.0,57,0.00,,---,0.00,VWS V14.01,2013-03-21 02:29:00,
2013-03-20 22:34:00,25.9,12.8,30.08,NW,307,4.0,4.0,57,0.00,,---,0.00,VWS V14.01,2013-03-21 02:34:00,
2013-03-20 22:39:00,25.7,13.0,30.08,West,276,2.0,4.0,58,0.00,,---,0.00,VWS V14.01,2013-03-21 02:39:00,
2013-03-20 22:44:00,25.6,12.9,30.09,WSW,253,0.0,4.0,58,0.00,,---,0.00,VWS V14.01,2013-03-21 02:44:00,
2013-03-20 22:49:00,25.5,12.8,30.08,West,267,0.0,5.0,58,0.00,,---,0.00,VWS V14.01,2013-03-21 02:49:00,
2013-03-20 22:54:00,25.5,12.8,30.08,WNW,290,1.0,5.0,58,0.00,,---,0.00,VWS V14.01,2013-03-21 02:54:00,
2013-03-20 22:59:00,25.3,13.0,30.08,NW,311,3.0,8.0,59,0.00,,---,0.00,VWS V14.01,2013-03-21 02:59:00,
2013-03-20 23:04:00,25.4,13.1,30.09,West,281,0.0,8.0,59,0.00,,---,0.00,VWS V14.01,2013-03-21 03:04:00,
2013-03-20 23:09:00,25.4,13.1,30.08,WNW,285,1.0,8.0,59,0.00,,---,0.00,VWS V14.01,2013-03-21 03:09:00,
2013-03-20 23:14:00,25.3,13.0,30.08,West,280,1.0,8.0,59,0.00,,---,0.00,VWS V14.01,2013-03-21 03:14:00,
2013-03-20 23:19:00,25.1,13.2,30.09,WSW,256,1.0,8.0,60,0.00,,---,0.00,VWS V14.01,2013-03-21 03:19:00,
2013-03-20 23:24:00,24.9,13.4,30.09,WSW,245,2.0,8.0,61,0.00,,---,0.00,VWS V14.01,2013-03-21 03:24:00,
2013-03-20 23:29:00,24.8,13.3,30.09,West,267,1.0,3.0,61,0.00,,---,0.00,VWS V14.01,2013-03-21 03:29:00,
2013-03-20 23:34:00,24.6,13.4,30.08,West,259,0.0,3.0,62,0.00,,---,0.00,VWS V14.01,2013-03-21 03:34:00,
2013-03-20 23:39:00,24.3,13.2,30.08,West,276,0.0,3.0,62,0.00,,---,0.00,VWS V14.01,2013-03-21 03:39:00,
2013-03-20 23:44:00,24.0,13.2,30.08,WNW,286,2.0,3.0,63,0.00,,---,0.00,VWS V14.01,2013-03-21 03:44:00,
2013-03-20 23:49:00,23.9,13.1,30.08,SW,224,0.0,3.0,63,0.00,,---,0.00,VWS V14.01,2013-03-21 03:49:00,
2013-03-20 23:54:00,23.8,13.1,30.08,WSW,240,0.0,3.0,63,0.00,,---,0.00,VWS V14.01,2013-03-21 03:54:00,
2013-03-20 23:59:00,23.7,13.3,30.08,West,276,2.0,2.0,64,0.00,,---,0.00,VWS V14.01,2013-03-21 03:59:00,